Tiempo cada hora Dabie

Hoy, 13 Mayo, Jueves

Tiempo Temperatura Precipitaciones Viento Presión Humedad
00:00 +13°C° 2.5 mm 3 mps 745 mmHg 97%
01:00 +13°C° 2.5 mm 3 mps 745 mmHg 97%
02:00 +13°C° 0.5 mm 3 mps 744 mmHg 97%
03:00 +12°C° 0.5 mm 3 mps 744 mmHg 98%
04:00 +12°C° 0.5 mm 3 mps 744 mmHg 98%
05:00 +12°C° 0.7 mm 3 mps 744 mmHg 98%
06:00 +12°C° 0.7 mm 3 mps 744 mmHg 98%
07:00 +12°C° 0.7 mm 3 mps 743 mmHg 97%
08:00 +12°C° 0.3 mm 3 mps 743 mmHg 97%
09:00 +12°C° 0.3 mm 3 mps 743 mmHg 97%
10:00 +12°C° 0.3 mm 3 mps 743 mmHg 97%
11:00 +12°C° 0.3 mm 3 mps 743 mmHg 96%
12:00 +12°C° 0.3 mm 3 mps 743 mmHg 96%
13:00 +12°C° 0.3 mm 3 mps 743 mmHg 96%
14:00 +12°C° 0.4 mm 3 mps 743 mmHg 96%
15:00 +11°C° 0.4 mm 3 mps 743 mmHg 96%
16:00 +11°C° 0.4 mm 3 mps 743 mmHg 96%
17:00 +11°C° 0.3 mm 4 mps 743 mmHg 97%
18:00 +10°C° 0.3 mm 4 mps 743 mmHg 97%
19:00 +10°C° 0.3 mm 4 mps 743 mmHg 97%
20:00 +10°C° 0.2 mm 4 mps 744 mmHg 97%
21:00 +10°C° 0.2 mm 4 mps 744 mmHg 97%
22:00 +8°C° 0.2 mm 4 mps 744 mmHg 97%
23:00 +8°C° 0.2 mm 4 mps 744 mmHg 97%

Mañana, 14 Mayo, Viernes

Tiempo Temperatura Precipitaciones Viento Presión Humedad
00:00 +8°C° 0.2 mm 4 mps 744 mmHg 97%
01:00 +8°C° 0.2 mm 4 mps 744 mmHg 97%
02:00 +8°C° 0.3 mm 4 mps 744 mmHg 97%
03:00 +8°C° 0.3 mm 4 mps 744 mmHg 97%
04:00 +8°C° 0.3 mm 4 mps 744 mmHg 97%
05:00 +8°C° 0.5 mm 4 mps 745 mmHg 97%
06:00 +8°C° 0.5 mm 4 mps 745 mmHg 97%
07:00 +8°C° 0.5 mm 4 mps 745 mmHg 96%
08:00 +8°C° 0.6 mm 4 mps 746 mmHg 96%
09:00 +8°C° 0.6 mm 4 mps 746 mmHg 96%
10:00 +8°C° 0.6 mm 4 mps 746 mmHg 96%
11:00 +8°C° 0.5 mm 4 mps 747 mmHg 95%
12:00 +8°C° 0.5 mm 4 mps 747 mmHg 95%
13:00 +8°C° 0.5 mm 4 mps 747 mmHg 95%
14:00 +10°C° 0.3 mm 4 mps 747 mmHg 93%
15:00 +10°C° 0.3 mm 3 mps 747 mmHg 92%
16:00 +11°C° 0.3 mm 3 mps 747 mmHg 90%
17:00 +11°C° 0 mm 3 mps 747 mmHg 90%
18:00 +12°C° 0 mm 2 mps 748 mmHg 90%
19:00 +12°C° 0 mm 2 mps 748 mmHg 89%
20:00 +11°C° 0 mm 1 mps 748 mmHg 91%
21:00 +10°C° 0 mm 1 mps 748 mmHg 92%
22:00 +9°C° 0 mm 1 mps 748 mmHg 94%
23:00 +9°C° 0 mm 1 mps 749 mmHg 94%

Pasado mañana, 15 Mayo, Sábado

Tiempo Temperatura Precipitaciones Viento Presión Humedad
00:00 +8°C° 0 mm 1 mps 749 mmHg 94%
01:00 +8°C° 0 mm 1 mps 749 mmHg 94%
02:00 +8°C° 0 mm 1 mps 749 mmHg 95%
03:00 +8°C° 0 mm 1 mps 749 mmHg 95%
04:00 +8°C° 0 mm 1 mps 749 mmHg 95%
05:00 +9°C° 0 mm 1 mps 749 mmHg 92%
06:00 +11°C° 0 mm 1 mps 749 mmHg 88%
07:00 +12°C° 0 mm 1 mps 749 mmHg 85%
08:00 +14°C° 0.1 mm 2 mps 749 mmHg 78%
09:00 +16°C° 0.1 mm 2 mps 749 mmHg 70%
10:00 +17°C° 0.1 mm 2 mps 749 mmHg 63%
11:00 +18°C° 0.3 mm 2 mps 748 mmHg 60%
12:00 +18°C° 0.3 mm 2 mps 748 mmHg 58%
13:00 +19°C° 0.3 mm 2 mps 748 mmHg 56%
14:00 +19°C° 0.4 mm 2 mps 748 mmHg 60%
15:00 +18°C° 0.4 mm 2 mps 747 mmHg 64%
16:00 +18°C° 0.4 mm 2 mps 747 mmHg 69%
17:00 +16°C° 0.6 mm 2 mps 747 mmHg 75%
18:00 +15°C° 0.6 mm 2 mps 747 mmHg 81%
19:00 +14°C° 0.6 mm 2 mps 747 mmHg 88%
20:00 +13°C° 0.3 mm 2 mps 747 mmHg 89%
21:00 +13°C° 0.3 mm 2 mps 747 mmHg 91%
22:00 +12°C° 0.3 mm 2 mps 747 mmHg 93%
23:00 +10°C° 0 mm 2 mps 747 mmHg 93%

16 Mayo, Domingo

Tiempo Temperatura Precipitaciones Viento Presión Humedad
00:00 +10°C° 0 mm 2 mps 747 mmHg 94%
01:00 +10°C° 0 mm 3 mps 747 mmHg 94%
02:00 +9°C° 0 mm 3 mps 747 mmHg 95%
03:00 +8°C° 0 mm 3 mps 747 mmHg 96%
04:00 +7°C° 0 mm 3 mps 747 mmHg 97%
05:00 +8°C° 0 mm 3 mps 747 mmHg 93%
06:00 +9°C° 0 mm 3 mps 747 mmHg 90%
07:00 +10°C° 0 mm 3 mps 747 mmHg 87%
08:00 +12°C° 0 mm 3 mps 747 mmHg 79%
09:00 +13°C° 0 mm 3 mps 747 mmHg 71%
10:00 +14°C° 0 mm 3 mps 747 mmHg 63%
11:00 +16°C° 0 mm 2 mps 747 mmHg 58%
12:00 +17°C° 0 mm 2 mps 747 mmHg 52%
13:00 +18°C° 0 mm 2 mps 746 mmHg 47%
14:00 +18°C° 0 mm 2 mps 746 mmHg 50%
15:00 +18°C° 0 mm 2 mps 746 mmHg 52%
16:00 +17°C° 0 mm 2 mps 746 mmHg 54%
17:00 +16°C° 0.1 mm 2 mps 746 mmHg 62%
18:00 +15°C° 0.1 mm 2 mps 746 mmHg 70%
19:00 +14°C° 0.1 mm 1 mps 746 mmHg 79%
20:00 +13°C° 0 mm 2 mps 746 mmHg 83%
21:00 +12°C° 0 mm 2 mps 746 mmHg 87%
22:00 +9°C° 0 mm 2 mps 746 mmHg 91%
23:00 +9°C° 0 mm 2 mps 746 mmHg 92%

17 Mayo, Lunes

Tiempo Temperatura Precipitaciones Viento Presión Humedad
00:00 +9°C° 0 mm 2 mps 746 mmHg 92%
01:00 +8°C° 0 mm 2 mps 746 mmHg 93%
02:00 +8°C° 0 mm 2 mps 746 mmHg 93%
03:00 +8°C° 0 mm 2 mps 746 mmHg 94%
04:00 +7°C° 0 mm 2 mps 746 mmHg 94%
05:00 +9°C° 0 mm 2 mps 746 mmHg 87%
06:00 +10°C° 0 mm 2 mps 746 mmHg 81%
07:00 +12°C° 0 mm 3 mps 746 mmHg 75%
08:00 +13°C° 0 mm 3 mps 746 mmHg 69%
09:00 +16°C° 0 mm 3 mps 746 mmHg 63%
10:00 +17°C° 0 mm 3 mps 746 mmHg 57%
11:00 +17°C° 0.5 mm 4 mps 746 mmHg 62%
12:00 +15°C° 0.5 mm 4 mps 746 mmHg 67%
13:00 +15°C° 0.5 mm 5 mps 746 mmHg 72%
14:00 +15°C° 0.3 mm 4 mps 746 mmHg 70%
15:00 +15°C° 0.3 mm 4 mps 746 mmHg 68%
16:00 +15°C° 0.3 mm 4 mps 746 mmHg 67%
17:00 +14°C° 0 mm 4 mps 746 mmHg 70%
18:00 +13°C° 0 mm 3 mps 746 mmHg 72%
19:00 +14°C° 0 mm 2 mps 746 mmHg 75%
20:00 +13°C° 0 mm 2 mps 746 mmHg 81%
21:00 +10°C° 0 mm 2 mps 746 mmHg 86%
22:00 +9°C° 0 mm 2 mps 746 mmHg 91%
23:00 +9°C° 0 mm 2 mps 746 mmHg 92%

18 Mayo, Martes

Tiempo Temperatura Precipitaciones Viento Presión Humedad
00:00 +8°C° 0 mm 2 mps 746 mmHg 92%
01:00 +8°C° 0 mm 2 mps 747 mmHg 92%
02:00 +8°C° 0 mm 3 mps 746 mmHg 93%
03:00 +7°C° 0 mm 3 mps 746 mmHg 94%
04:00 +7°C° 0 mm 3 mps 746 mmHg 95%
05:00 +8°C° 0 mm 3 mps 747 mmHg 90%
06:00 +8°C° 0 mm 4 mps 747 mmHg 85%
07:00 +11°C° 0 mm 4 mps 747 mmHg 80%
08:00 +11°C° 0.1 mm 4 mps 748 mmHg 77%
09:00 +12°C° 0.1 mm 5 mps 748 mmHg 75%
10:00 +13°C° 0.1 mm 5 mps 748 mmHg 73%
11:00 +13°C° 0.2 mm 5 mps 748 mmHg 71%
12:00 +14°C° 0.2 mm 5 mps 748 mmHg 70%
13:00 +14°C° 0.2 mm 5 mps 749 mmHg 69%
14:00 +14°C° 0.2 mm 6 mps 749 mmHg 69%
15:00 +14°C° 0.2 mm 6 mps 749 mmHg 70%
16:00 +14°C° 0.2 mm 6 mps 749 mmHg 70%
17:00 +13°C° 0.1 mm 5 mps 750 mmHg 73%
18:00 +12°C° 0.1 mm 5 mps 750 mmHg 75%
19:00 +12°C° 0.1 mm 5 mps 750 mmHg 77%
20:00 +10°C° 0 mm 5 mps 751 mmHg 81%
21:00 +9°C° 0 mm 5 mps 751 mmHg 84%
22:00 +8°C° 0 mm 5 mps 751 mmHg 87%
23:00 +8°C° 0 mm 4 mps 752 mmHg 90%
Mostrar más

Necesitamos Su Consentimiento

Meteoprog y nuestros Proveedores de Servicios pueden almacenar y acceder a sus datos personales como cookies, identificadores de dispositivo u otras tecnologías similares de su dispositivo y procesar dichos datos para personalizar contenido y anuncios, además de ofrecer funciones de redes sociales y analizar el tráfico.

  • Almacenar y/o acceder a información en su dispositivo

    Se puede almacenar o acceder a cookies, identificadores de dispositivo u otra información de su dispositivo para los fines anteriormente indicados.

  • Anuncios y contenido personalizados, medición de anuncios y contenido, percepciones del público, y desarrollo de productos

    Los anuncios y el contenido pueden personalizarse en base a su perfil. Se pueden añadir más datos para personalizar mejor los anuncios y contenidos. Se puede medir el rendimiento de los anuncios y contenidos. Se puede obtener la percepción sobre el público que ha visto los anuncios y contenidos. Dichos datos pueden usarse para desarrollar o mejorar la experiencia del usuario, sistemas y software.

Al hacer clic en ‘Estoy De Acuerdo’ usted permitirá el uso de las cookies, identificadores de dispositivo, balizas web u otras tecnologías similares indicadas. Su configuración puede cambiarse desde el navegador de su dispositivo.

Para ciertos fines, los intereses legítimos pueden ser considerados por encima del consentimiento. Puede leer más sobre ello en nuestra Política de Privacidad y Cookies.